Weather reports worldwide

Advertisment
Arkona, Germany (10091): temperature & dewpoint: 10.08.2018 18:00:00 - 16.08.2018 18:00:00 (CEST)Arkona, Germany (10091): temperature 5cm & temperature -5cm: 10.08.2018 18:00:00 - 16.08.2018 18:00:00 (CEST)Arkona, Germany (10091): temperature -20cm & temperature -100cm: 10.08.2018 18:00:00 - 16.08.2018 18:00:00 (CEST)Arkona, Germany (10091): water temperature: 10.08.2018 18:00:00 - 16.08.2018 18:00:00 (CEST)Arkona, Germany (10091): wind speed & gusts: 10.08.2018 18:00:00 - 16.08.2018 18:00:00 (CEST)Arkona, Germany (10091): wind direction: 10.08.2018 18:00:00 - 16.08.2018 18:00:00 (CEST)Arkona, Germany (10091): reduced air pressure: 10.08.2018 18:00:00 - 16.08.2018 18:00:00 (CEST)Arkona, Germany (10091): visibility: 10.08.2018 18:00:00 - 16.08.2018 18:00:00 (CEST)Arkona, Germany (10091): sunshine duration: 10.08.2018 18:00:00 - 16.08.2018 18:00:00 (CEST)Arkona, Germany (10091): precipitation: 10.08.2018 18:00:00 - 16.08.2018 18:00:00 (CEST)
Date & Time tt [°C] td [°C] tt 5cm [°C] tt -5cm [°C] tt -20cm [°C] tt -100cm [°C] tw [°C] ff [km/h] ff [kn] fx [km/h] fx [kn] dd ppp [hPa] vv [km] sd [min] rr [mm]
16.08.2018 18:00:00 23,1 18,5 25,7 29,6 24,0 18,9 20,4 29 15 42 23 ESE 1015,1 22 60 0,0
16.08.2018 17:00:00 23,3 18,0 27,9 31,3 23,4 18,9 20,3 22 12 38 20 E 1015,3 23 60 0,0
16.08.2018 16:00:00 23,7 19,0 27,5 31,6 22,7 18,9 20,3 22 12 37 20 E 1015,8 20 60 0,0
16.08.2018 15:00:00 23,6 18,1 27,4 31,0 21,9 18,9 20,2 24 13 35 19 ESE 1016,3 19 60 0,0
16.08.2018 14:00:00 24,8 15,7 28,1 29,6 21,1 19,0 20,2 12 7 25 14 SSE 1016,9 24 60 0,0
16.08.2018 13:00:00 24,3 14,7 27,4 27,1 20,5 19,0 20,1 16 9 30 16 S 1017,3 18 55 0,0
16.08.2018 12:00:00 24,2 14,4 26,4 25,3 19,9 19,0 20,0 21 11 30 16 SSW 1017,5 17 60 0,0
16.08.2018 11:00:00 23,1 15,3 24,8 23,5 19,5 19,0 19,9 19 10 26 14 SSW 1017,8 18 60 0,0
16.08.2018 10:00:00 22,2 15,4 23,4 21,5 19,2 19,0 19,8 21 11 29 16 SSW 1017,9 22 60 0,0
16.08.2018 09:00:00 20,8 15,4 21,1 19,7 19,1 19,0 19,8 20 11 29 16 SSW 1018,0 21 43 0,0
16.08.2018 08:00:00 19,6 16,0 19,5 18,6 19,1 19,0 19,8 19 10 24 13 SSW 1017,9 21 2 0,0
16.08.2018 07:00:00 19,2 16,3 18,9 18,2 19,2 19,0 19,8 19 10 23 12 SSW 1017,9 13 0 0,0
16.08.2018 06:00:00 18,8 16,8 18,4 18,2 19,2 19,0 19,8 18 10 23 12 SSW 1018,0 9 0 0,0
16.08.2018 05:00:00 18,7 17,4 18,4 18,2 19,3 19,0 19,8 15 8 18 10 SW 1018,2 8 0 0,0
16.08.2018 04:00:00 18,6 17,5 18,3 18,1 19,4 19,0 19,8 16 9 19 10 SW 1018,2 6 0 0,0
16.08.2018 03:00:00 18,2 17,1 17,8 17,8 19,5 19,0 19,8 14 8 19 11 SW 1018,1 8 0 0,0
16.08.2018 02:00:00 17,8 16,5 17,4 17,4 19,7 19,0 19,8 16 9 19 10 SW 1018,1 16 0 0,0
16.08.2018 01:00:00 17,8 15,8 16,8 17,5 20,0 19,0 19,8 17 9 22 12 SW 1018,1 15 0 0,0
16.08.2018 00:00:00 17,7 15,9 16,7 17,8 20,2 19,0 19,8 19 10 21 11 SW 1018,0 10 0 0,0
15.08.2018 23:00:00 17,9 16,2 16,8 18,2 20,5 19,0 19,8 17 9 20 11 WSW 1018,0 11 0 0,0
15.08.2018 22:00:00 18,0 15,4 16,8 18,8 20,8 19,1 19,8 17 9 24 13 WSW 1018,1 14 0 0,0
15.08.2018 21:00:00 19,7 15,9 19,1 19,7 21,0 19,1 19,8 20 11 26 14 WSW 1017,9 25 0 0,0
15.08.2018 20:00:00 20,2 15,4 19,7 20,4 21,1 19,1 19,9 23 12 32 17 WSW 1017,4 26 6 0,0
15.08.2018 19:00:00 20,8 15,3 20,9 21,7 21,2 19,1 19,8 26 14 38 21 WSW 1017,3 45 59 0,0
15.08.2018 18:00:00 21,0 14,9 22,2 22,3 21,2 19,1 19,8 27 14 37 20 W 1017,3 34 31 0,0
15.08.2018 17:00:00 20,7 15,0 22,8 23,4 21,0 19,1 19,8 31 17 40 21 W 1017,3 21 60 0,0
15.08.2018 16:00:00 20,7 15,3 23,5 23,1 20,8 19,1 19,8 24 13 35 19 W 1017,1 39 34 0,0
15.08.2018 15:00:00 19,9 15,1 22,5 23,6 20,6 19,1 19,9 28 15 39 21 W 1017,1 41 15 0,0
15.08.2018 14:00:00 20,2 15,0 22,8 23,2 20,3 19,1 19,9 25 14 37 20 WSW 1016,9 50 15 0,0
15.08.2018 13:00:00 19,9 12,9 23,1 23,5 19,9 19,1 19,9 29 16 36 19 W 1016,5 38 48 0,0
15.08.2018 12:00:00 18,7 14,0 20,2 22,7 19,5 19,1 19,9 19 11 34 18 W 1016,3 53 48 0,0
15.08.2018 11:00:00 19,6 13,6 22,3 22,3 19,2 19,1 19,8 16 8 33 18 WNW 1016,0 22 54 0,0
15.08.2018 10:00:00 18,4 14,1 19,6 19,6 19,0 19,2 19,8 21 11 39 21 WNW 1015,3 52 26 0,0
15.08.2018 09:00:00 18,4 14,5 19,1 19,3 19,0 19,2 19,8 24 13 40 22 WNW 1014,5 58 30 0,0
15.08.2018 08:00:00 18,1 15,0 18,3 18,0 19,0 19,2 19,9 25 13 37 20 WNW 1013,8 60 2 0,0
15.08.2018 07:00:00 18,3 15,9 18,0 17,8 19,1 19,2 19,9 20 11 37 20 WNW 1012,9 40 0 0,0
15.08.2018 06:00:00 18,7 16,0 18,3 17,8 19,2 19,2 19,9 26 14 39 21 WNW 1012,4 24 0 0,0
15.08.2018 05:00:00 18,8 16,4 18,4 17,8 19,3 19,2 19,9 21 11 35 19 W 1012,0 23 0 0,0
15.08.2018 04:00:00 18,7 15,7 18,2 17,9 19,4 19,2 19,9 20 11 40 22 WNW 1011,9 33 0 0,0
15.08.2018 03:00:00 18,8 16,2 18,4 18,1 19,5 19,2 19,8 26 14 40 21 W 1011,6 29 0 0,0
15.08.2018 02:00:00 19,1 16,4 18,7 18,1 19,6 19,2 19,7 29 16 42 23 W 1011,4 21 0 0,0
15.08.2018 01:00:00 19,0 16,2 18,5 18,1 19,8 19,2 19,7 26 14 39 21 W 1011,2 32 0 0,0
15.08.2018 00:00:00 18,9 16,1 18,2 18,2 20,0 19,2 19,6 22 12 39 21 WNW 1010,6 58 0 0,0
14.08.2018 23:00:00 19,6 17,0 19,1 18,4 20,2 19,3 19,5 23 12 37 20 WNW 1010,0 43 0 0,0
14.08.2018 22:00:00 19,4 16,0 18,5 18,6 20,4 19,3 19,5 28 15 41 22 W 1009,6 42 0 0,0
14.08.2018 21:00:00 18,9 16,2 17,9 19,0 20,6 19,3 19,5 23 12 40 22 W 1009,2 40 10 0,0
14.08.2018 20:00:00 19,3 17,0 18,7 20,2 20,7 19,3 19,5 31 17 44 24 WSW 1008,5 12 56 0,0
14.08.2018 19:00:00 20,2 16,9 19,8 21,1 20,7 19,3 19,6 35 19 46 25 WSW 1008,1 13 40 0,0
14.08.2018 18:00:00 19,9 18,3 20,6 20,8 20,8 19,3 19,6 24 13 46 25 WSW 1007,9 8 5 0,7
14.08.2018 17:00:00 19,2 16,9 18,3 21,5 20,7 19,3 19,5 30 16 55 30 WSW 1008,1 6 14 0,2
14.08.2018 16:00:00 20,2 16,0 20,9 21,7 20,7 19,3 19,5 38 20 54 29 WSW 1007,5 21 2 0,1
14.08.2018 15:00:00 19,5 16,3 19,1 22,1 20,5 19,4 19,5 34 18 48 26 WSW 1007,5 7 7 0,0
14.08.2018 14:00:00 21,1 16,5 23,1 23,2 20,3 19,4 19,5 30 16 47 26 WSW 1007,2 18 15 0,0
14.08.2018 13:00:00 20,4 15,1 21,6 23,3 20,0 19,4 19,4 29 16 46 25 SW 1006,8 19 14 0,0
14.08.2018 12:00:00 21,2 16,2 24,1 22,8 19,6 19,4 19,3 33 18 49 26 WSW 1006,6 23 25 0,0
14.08.2018 11:00:00 20,9 16,1 23,1 22,7 19,2 19,4 19,5 30 16 42 23 WSW 1006,6 11 52 0,0
14.08.2018 10:00:00 20,1 15,5 22,1 21,1 18,9 19,4 19,6 29 16 42 23 SW 1006,3 12 59 0,0
14.08.2018 09:00:00 19,1 15,7 20,1 19,0 18,9 19,4 19,8 28 15 40 22 SW 1006,1 9 49 0,0
14.08.2018 08:00:00 18,1 16,4 18,3 17,8 18,9 19,4 19,9 23 12 31 17 SW 1005,9 9 33 0,0
14.08.2018 07:00:00 17,0 15,9 16,2 16,8 19,1 19,5 20,0 20 11 28 15 WSW 1005,6 18 6 0,0
14.08.2018 06:00:00 16,9 15,7 16,0 17,0 19,3 19,5 20,0 22 12 26 14 WSW 1005,2 22 0 0,0
14.08.2018 05:00:00 17,4 15,5 16,7 17,5 19,5 19,5 20,0 21 11 25 13 SW 1005,2 23 0 0,0
14.08.2018 04:00:00 18,2 16,4 17,3 18,0 19,6 19,5 20,0 19 11 24 13 SSW 1005,4 21 0 0,0
14.08.2018 03:00:00 18,8 17,3 17,7 18,5 19,8 19,5 20,0 15 8 19 11 SW 1005,3 21 0 0,0
14.08.2018 02:00:00 20,2 17,6 19,2 18,8 19,9 19,5 20,0 19 10 31 17 S 1005,4 29 0 0,0
14.08.2018 01:00:00 20,3 18,4 19,7 18,9 20,0 19,6 20,0 28 15 43 23 ESE 1005,6 18 0 0,0
14.08.2018 00:00:00 20,1 18,4 19,6 19,2 20,1 19,6 20,1 10 6 33 18 ENE 1005,7 20 0 0,0
13.08.2018 23:00:00 19,8 17,7 19,2 19,2 20,3 19,6 20,1 12 7 44 24 E 1005,9 28 0 0,0
13.08.2018 22:00:00 19,5 17,8 18,7 19,4 20,5 19,6 20,2 18 10 40 22 ENE 1006,3 29 0 0,1
13.08.2018 21:00:00 19,8 17,3 19,2 19,8 20,6 19,6 20,2 12 7 42 23 E 1006,6 31 0 0,1
13.08.2018 20:00:00 19,7 17,4 19,0 20,4 20,8 19,7 20,2 19 11 45 24 ENE 1006,6 25 0 0,0
13.08.2018 19:00:00 19,9 17,3 19,9 21,3 20,8 19,7 20,2 19 11 46 25 ENE 1006,4 36 0 0,0
13.08.2018 18:00:00 20,2 17,1 20,8 22,7 20,7 19,7 20,2 17 9 49 26 ENE 1006,8 30 15 0,0
13.08.2018 17:00:00 20,6 17,3 22,2 23,6 20,4 19,7 20,1 11 6 40 22 ENE 1007,3 34 19 0,0
13.08.2018 16:00:00 20,7 17,1 21,6 23,2 20,1 19,8 20,1 8 4 34 18 ENE 1007,8 34 4 0,0
13.08.2018 15:00:00 21,2 16,8 23,3 24,0 19,7 19,8 20,2 8 4 30 16 ENE 1008,1 45 6 0,0
13.08.2018 14:00:00 21,2 16,9 23,3 23,1 19,3 19,8 20,2 13 7 34 18 E 1008,6 35 1 0,0
13.08.2018 13:00:00 21,0 16,6 22,4 22,5 18,9 19,8 20,2 13 7 38 20 E 1008,8 39 0 0,0
13.08.2018 12:00:00 20,9 16,4 22,4 21,3 18,5 19,8 20,2 27 14 39 21 ESE 1009,3 45 0 0,0
13.08.2018 11:00:00 20,1 16,2 20,8 20,3 18,2 19,9 20,2 29 16 38 20 SE 1009,6 37 10 0,0
13.08.2018 10:00:00 20,1 16,2 20,8 19,0 18,0 19,9 20,2 26 14 33 18 ESE 1009,6 41 2 0,0
13.08.2018 09:00:00 19,2 15,5 19,1 17,7 17,9 19,9 20,2 20 11 27 15 SE 1009,6 37 0 0,0
13.08.2018 08:00:00 18,4 15,5 17,0 17,1 17,9 19,9 20,1 18 10 31 17 SE 1009,8 20 0 0,2
13.08.2018 07:00:00 18,4 15,4 17,8 16,8 17,9 20,0 20,1 22 12 30 16 SSE 1009,4 35 0 0,0
13.08.2018 06:00:00 18,1 15,4 17,0 16,6 18,0 20,0 20,1 18 10 27 15 SE 1009,8 22 0 0,2
13.08.2018 05:00:00 17,4 15,3 16,2 16,5 18,0 20,0 20,1 10 5 21 11 SSE 1010,5 10 0 0,8
13.08.2018 04:00:00 17,3 14,9 16,0 16,5 18,1 20,0 20,1 15 8 24 13 S 1010,8 10 0 0,6
13.08.2018 03:00:00 16,8 15,4 15,9 16,4 18,1 20,1 20,1 11 6 19 10 S 1011,1 5 0 0,4
13.08.2018 02:00:00 16,3 14,4 15,3 16,3 18,2 20,1 20,1 11 6 17 9 SSE 1011,4 9 0 0,3
13.08.2018 01:00:00 15,8 14,3 15,0 16,4 18,3 20,1 20,1 10 5 14 8 S 1012,1 6 0 0,3
13.08.2018 00:00:00 15,4 14,5 14,9 16,5 18,5 20,1 20,2 10 5 15 8 ESE 1012,2 1,8 0 0,4
12.08.2018 23:00:00 14,7 13,7 14,4 16,7 18,6 20,2 20,2 5 3 7 4 SSE 1012,7 3,8 0 0,6
12.08.2018 22:00:00 14,6 13,1 14,3 16,8 18,7 20,2 20,3 2 1 8 4 WSW 1013,1 3,6 0 1,3
12.08.2018 21:00:00 15,3 13,4 14,6 17,1 18,8 20,2 20,3 6 3 10 5 WSW 1013,5 5 0 0,3
12.08.2018 20:00:00 15,6 12,8 14,4 17,1 19,0 20,2 20,3 8 4 21 11 W 1013,6 9 0 0,4
12.08.2018 19:00:00 16,6 11,5 14,7 17,5 19,1 20,3 20,3 14 8 31 17 WNW 1013,9 12 0 0,1
12.08.2018 18:00:00 17,9 10,1 17,9 18,1 19,2 20,3 20,3 22 12 39 21 W 1014,3 70 0 0,0
12.08.2018 17:00:00 18,3 10,5 18,8 18,8 19,2 20,3 20,3 28 15 40 21 W 1014,7 56 0 0,0
12.08.2018 16:00:00 18,1 10,3 18,9 19,8 19,1 20,3 20,2 31 17 39 21 W 1015,0 70 0 0,0
12.08.2018 15:00:00 18,9 11,7 20,5 20,9 18,7 20,3 20,2 32 17 46 25 WSW 1015,3 41 19 0,0
12.08.2018 14:00:00 19,1 11,0 22,6 22,3 18,1 20,4 20,2 36 19 50 27 WSW 1015,7 10 60 0,0
12.08.2018 13:00:00 19,2 11,8 21,5 20,0 17,7 20,4 20,2 41 22 53 29 WSW 1015,8 13 30 0,0
12.08.2018 12:00:00 16,7 12,7 17,0 16,9 17,5 20,4 20,2 30 16 46 25 WSW 1016,4 62 6 0,0
12.08.2018 11:00:00 16,4 14,5 16,6 16,9 17,4 20,4 20,2 23 12 40 21 WSW 1016,3 36 1 0,4
12.08.2018 10:00:00 15,8 14,4 16,0 16,4 17,2 20,5 20,3 27 15 40 21 SW 1016,4 28 7 0,2
12.08.2018 09:00:00 17,2 10,4 17,7 15,9 17,1 20,5 20,3 32 17 44 24 W 1016,3 49 21 0,0
12.08.2018 08:00:00 16,4 10,3 16,3 14,8 17,1 20,5 20,3 32 18 43 23 W 1016,5 70 34 0,0
12.08.2018 07:00:00 15,7 9,8 15,0 13,4 17,3 20,5 20,4 32 17 49 27 W 1016,4 15 34 0,0
12.08.2018 06:00:00 16,1 9,8 15,0 13,4 17,5 20,5 20,4 37 20 51 27 W 1016,1 70 0 0,0
12.08.2018 05:00:00 15,7 9,7 14,7 13,4 17,7 20,5 20,5 42 23 58 31 W 1016,0 70 0 0,0
12.08.2018 04:00:00 16,3 8,6 15,0 13,4 17,9 20,6 20,5 48 26 63 34 W 1016,0 70 0 0,0
12.08.2018 03:00:00 16,3 9,9 15,1 13,7 18,1 20,6 20,5 48 26 64 35 W 1015,9 65 0 0,0
12.08.2018 02:00:00 16,3 9,8 15,2 14,0 18,4 20,6 - 47 25 63 34 W 1015,8 67 0 0,0
12.08.2018 01:00:00 16,4 10,3 15,2 14,2 18,7 20,6 - 50 27 67 36 W 1015,6 61 0 0,0
12.08.2018 00:00:00 16,0 10,2 15,0 14,4 19,0 20,6 - 49 26 66 36 W 1015,7 70 0 0,0
11.08.2018 23:00:00 16,2 10,4 15,2 14,8 19,3 20,7 - 45 25 61 33 W 1015,7 70 0 0,0
11.08.2018 22:00:00 16,2 9,9 15,3 14,8 19,7 20,7 - 40 22 74 40 W 1015,6 70 0 0,0
11.08.2018 21:00:00 15,5 11,5 14,0 15,7 20,1 20,7 - 56 30 74 40 W 1014,5 68 0 4,3
11.08.2018 20:00:00 15,8 11,5 15,1 16,6 20,5 20,7 - 63 34 89 48 WSW 1013,5 70 3 0,9
11.08.2018 19:00:00 15,0 12,8 14,0 17,0 20,9 20,7 - 50 27 77 42 WSW 1013,5 8 0 5,1
11.08.2018 18:00:00 15,1 12,9 14,2 18,0 21,2 20,7 - 46 25 63 34 SW 1013,8 38 0 1,7
11.08.2018 17:00:00 14,0 11,5 13,3 19,4 21,4 20,8 - 39 21 57 31 SW 1015,1 18 8 0,5
11.08.2018 16:00:00 13,3 11,3 12,7 20,3 21,3 20,8 - 45 25 87 47 WSW 1016,2 4,5 11 0,5
11.08.2018 15:00:00 18,5 10,4 20,2 23,5 21,0 20,8 - 30 16 49 26 WSW 1015,5 48 40 0,0
11.08.2018 14:00:00 18,2 11,2 21,3 22,6 20,8 20,8 - 31 17 57 31 SW 1016,2 36 29 0,4
11.08.2018 13:00:00 16,3 9,8 16,1 21,8 20,5 20,8 - 43 23 58 31 SW 1016,7 68 11 0,0
11.08.2018 12:00:00 19,9 11,0 23,4 22,0 20,1 20,8 - 37 20 52 28 WSW 1016,4 26 26 0,0
11.08.2018 11:00:00 19,3 12,2 21,3 21,5 19,7 20,8 - 32 18 48 26 WSW 1016,5 24 45 0,0
11.08.2018 10:00:00 20,2 10,8 21,4 19,6 19,6 20,8 - 25 14 37 20 SW 1016,3 21 59 0,0
11.08.2018 09:00:00 19,7 10,7 20,1 17,8 19,5 20,8 - 28 15 45 25 S 1016,3 32 32 0,0
11.08.2018 08:00:00 19,6 12,1 19,0 16,8 19,6 20,9 - 25 13 38 20 S 1016,8 47 0 0,0
11.08.2018 07:00:00 19,2 11,5 18,4 16,2 19,8 20,9 - 31 17 44 24 S 1017,4 65 0 0,0
11.08.2018 06:00:00 18,9 11,3 17,9 16,0 20,0 20,9 - 28 15 36 19 S 1017,9 66 0 0,0
11.08.2018 05:00:00 18,6 12,7 17,4 16,1 20,2 20,9 - 22 12 31 17 S 1018,5 60 0 0,0
11.08.2018 04:00:00 18,6 13,6 17,3 16,3 20,4 20,9 - 22 12 27 14 S 1019,0 55 0 0,0
11.08.2018 03:00:00 18,0 13,8 15,9 16,3 20,7 20,9 - 9 5 17 9 S 1019,7 28 0 0,0
11.08.2018 02:00:00 17,8 13,6 16,2 16,4 21,0 20,9 - 11 6 17 9 S 1020,2 58 0 0,0
11.08.2018 01:00:00 16,4 12,9 14,6 16,7 21,3 20,9 - 13 7 14 8 S 1020,9 51 0 0,0
11.08.2018 00:00:00 15,8 12,6 13,0 17,3 21,6 20,9 - 12 7 17 9 SW 1021,1 43 0 0,0
10.08.2018 23:00:00 15,9 13,1 14,7 17,8 22,0 20,9 - 14 8 27 15 W 1021,2 42 0 0,3
10.08.2018 22:00:00 16,2 12,4 15,5 18,0 22,3 20,9 - 14 7 18 10 WSW 1021,3 46 0 0,0
10.08.2018 21:00:00 17,0 12,0 15,5 18,8 22,6 20,9 - 13 7 21 11 WSW 1020,7 56 31 0,0
10.08.2018 20:00:00 18,9 11,7 18,6 19,8 22,9 20,9 - 21 12 39 21 W 1020,3 59 60 0,0
10.08.2018 19:00:00 19,6 12,1 20,3 21,1 23,0 20,9 - 29 16 46 25 WSW 1020,4 30 60 0,0
10.08.2018 18:00:00 20,5 12,0 21,8 21,6 23,1 20,9 - 37 20 55 30 WSW 1020,3 16 58 0,0

tt = temperature
td = dewpoint
tt 5cm = temperature 5cm
tt -5cm = temperature -5cm
tt -20cm = temperature -20cm
tt -100cm = temperature -100cm
tw = water temperature
ff = wind speed
fx = gusts
dd = wind direction
ppp = reduced air pressure
vv = visibility
sd = sunshine duration
rr = precipitation

Next stations